Phoenix, AZ

5:19 PM MST on March 24, 2017 (GMT -0700)
Phoenix Sky Harbor International

Weather History for KPHX - July, 2013

Change the Weather History Date:

Thursday, July 4, 2013

  Actual Average Record
Temperature  
Mean Temperature 100 °F 95 °F  
Max Temperature 108 °F 107 °F 118 °F (1989)
Min Temperature 91 °F 83 °F 63 °F (1912)
Degree Days  
Heating Degree Days 0 0  
Month to date heating degree days 0 0  
Since 1 June heating degree days 0 0  
Since 1 July heating degree days 0 0  
Cooling Degree Days 35 30  
Month to date cooling degree days 137 117  
Year to date cooling degree days 2137 1777  
Since 1 June cooling degree days 1039 891  
Growing Degree Days 50 (Base 50)    
Moisture  
Dew Point 54 °F    
Average Humidity 22    
Maximum Humidity 28    
Minimum Humidity 16    
Precipitation  
Precipitation 0.00 in 0.02 in 0.22 in (1898)
Month to date precipitation T 0.07  
Year to date precipitation 2.61 3.30  
Snow  
Snow 0.00 in - - ()
Month to date snowfall 0.0  
Year to date snowfall 0.0  
Since 1 July snowfall 0.0  
Snow Depth 0.00 in    
Sea Level Pressure  
Sea Level Pressure 29.64 in    
Wind  
Wind Speed 9 mph (WNW)    
Max Wind Speed 18 mph    
Max Gust Speed 25 mph    
Visibility 10 miles    
Events      
T = Trace of Precipitation, MM = Missing Value Source: NWS Daily Summary

Daily Weather History Graph

Daily Weather History Graph

Search for Another Location

Airport or City:

Trip Planner

Search our weather history database for the weather conditions in past years. The results will help you decide how hot, cold, wet, or windy it might be!

Date:

Astronomy

Jul. 04, 2013 Rise Set
Actual Time 5:23 AM MST 7:41 PM MST
Civil Twilight 4:54 AM MST 8:10 PM MST
Nautical Twilight 4:19 AM MST 8:45 PM MST
Astronomical Twilight 3:41 AM MST 9:23 PM MST
Moon 2:38 AM MST (7/4) 4:52 PM MST (7/4)
Length of Visible Light 15h 15m
Length of Day
14h 18m
Waning Crescent, 11% of the Moon is Illuminated
Jul 4
Waning Crescent
Jul 8
New
Jul 15
First Quarter
Jul 22
Full
Jul 29
Last Quarter

Hourly Weather History & Observations

Time (MST) Temp. Heat Index Dew Point Humidity Pressure Visibility Wind Dir Wind Speed Gust Speed Precip Events Conditions
12:51 AM 99.0 °F - 51.1 °F 20% 29.59 in 10.0 mi WNW 8.1 mph - N/A   Partly Cloudy
1:51 AM 97.0 °F - 52.0 °F 22% 29.60 in 10.0 mi WNW 5.8 mph - N/A   Partly Cloudy
2:51 AM 93.9 °F 91.4 °F 53.1 °F 25% 29.61 in 10.0 mi Calm Calm - N/A   Partly Cloudy
3:51 AM 93.0 °F 90.6 °F 53.1 °F 26% 29.62 in 10.0 mi ESE 4.6 mph - N/A   Mostly Cloudy
4:51 AM 91.9 °F 89.5 °F 54.0 °F 27% 29.63 in 10.0 mi East 5.8 mph - N/A   Mostly Cloudy
5:51 AM 91.0 °F 88.5 °F 53.1 °F 27% 29.66 in 10.0 mi East 10.4 mph - N/A   Mostly Cloudy
6:51 AM 91.9 °F 89.5 °F 54.0 °F 27% 29.69 in 10.0 mi ENE 5.8 mph - N/A   Mostly Cloudy
7:51 AM 93.9 °F 91.7 °F 54.0 °F 26% 29.72 in 10.0 mi ENE 5.8 mph - N/A   Scattered Clouds
8:51 AM 96.1 °F 93.8 °F 54.0 °F 24% 29.73 in 10.0 mi NE 8.1 mph - N/A   Partly Cloudy
9:51 AM 98.1 °F 96.1 °F 54.0 °F 23% 29.72 in 10.0 mi NNE 6.9 mph - N/A   Partly Cloudy
10:51 AM 100.9 °F - 52.0 °F 19% 29.71 in 10.0 mi NW 9.2 mph - N/A   Scattered Clouds
11:51 AM 100.9 °F 99.1 °F 54.0 °F 21% 29.70 in 10.0 mi NW 6.9 mph - N/A   Scattered Clouds
12:51 PM 102.0 °F 100.6 °F 55.0 °F 21% 29.67 in 10.0 mi West 8.1 mph 23.0 mph N/A   Partly Cloudy
1:51 PM 104.0 °F 102.9 °F 55.0 °F 20% 29.65 in 10.0 mi West 10.4 mph 20.7 mph N/A   Partly Cloudy
2:51 PM 105.1 °F 103.3 °F 54.0 °F 18% 29.62 in 10.0 mi WNW 4.6 mph 16.1 mph N/A   Partly Cloudy
3:51 PM 108.0 °F 105.9 °F 53.1 °F 16% 29.58 in 10.0 mi WNW 16.1 mph - N/A   Partly Cloudy
4:51 PM 107.1 °F 105.4 °F 53.1 °F 17% 29.57 in 10.0 mi WNW 16.1 mph - N/A   Partly Cloudy
5:51 PM 107.1 °F - 52.0 °F 16% 29.56 in 10.0 mi WSW 10.4 mph 20.7 mph N/A   Scattered Clouds
6:51 PM 107.1 °F 105.4 °F 53.1 °F 17% 29.55 in 10.0 mi West 17.3 mph - N/A   Scattered Clouds
7:51 PM 104.0 °F 102.3 °F 54.0 °F 19% 29.58 in 10.0 mi WSW 10.4 mph - N/A   Scattered Clouds
8:51 PM 102.0 °F 100.1 °F 54.0 °F 20% 29.60 in 10.0 mi WSW 11.5 mph - N/A   Scattered Clouds
9:51 PM 100.9 °F 99.6 °F 55.0 °F 22% 29.61 in 10.0 mi West 15.0 mph - N/A   Scattered Clouds
10:51 PM 99.0 °F 98.1 °F 57.0 °F 25% 29.63 in 10.0 mi West 13.8 mph 20.7 mph N/A   Partly Cloudy
11:51 PM 97.0 °F 94.6 °F 54.0 °F 23% 29.64 in 10.0 mi WNW 10.4 mph - N/A   Partly Cloudy